DO5RS-5 Weather Reports


time (UTC)temp
C
wind
direction
speed
KPH
gust
KPH
rain 1hr
cm
rain 24hr
cm
rain mn
cm
humidity
%
barometer
mb
20260507112904 15 0.0 0.0 0.00 0.00 0.00 69 1017.8
20260507111905 15 0.0 0.0 0.00 0.00 0.00 66 1017.6
20260507110906 15 0.0 0.0 0.00 0.00 0.00 66 1017.6
20260507105909 15 0.0 0.0 0.00 0.00 0.00 65 1017.6
20260507103905 15 0.0 0.0 0.00 0.00 0.00 67 1017.7
20260507102905 15 0.0 0.0 0.00 0.00 0.00 66 1017.5
20260507101905 15 0.0 0.0 0.00 0.00 0.00 66 1017.5
20260507100905 15 0.0 0.0 0.00 0.00 0.00 67 1017.4
20260507095910 15 0.0 0.0 0.00 0.00 0.00 66 1017.4
20260507093904 15 0.0 0.0 0.00 0.00 0.00 67 1017.2
20260507092906 15 0.0 0.0 0.00 0.00 0.00 69 1017.1
20260507091910 14 0.0 0.0 0.00 0.00 0.00 68 1017.1
20260507085905 13 0.0 0.0 0.00 0.00 0.00 73 1017.1
20260507084905 13 0.0 0.0 0.00 0.00 0.00 73 1016.9
20260507083904 13 0.0 0.0 0.00 0.00 0.00 74 1017.0
20260507082904 12 0.0 0.0 0.00 0.00 0.00 77 1016.9
20260507081905 12 0.0 0.0 0.00 0.00 0.00 77 1016.3
20260507080904 12 0.0 0.0 0.00 0.00 0.00 79 1016.9
20260507075904 12 0.0 0.0 0.00 0.00 0.00 79 1016.8
20260507074905 12 0.0 0.0 0.00 0.00 0.00 78 1016.7
20260507073906 12 0.0 0.0 0.00 0.00 0.00 79 1016.6
20260507072905 12 0.0 0.0 0.00 0.00 0.00 79 1016.5
20260507071909 12 0.0 0.0 0.00 0.00 0.00 79 1016.4
20260507065905 12 0.0 0.0 0.00 0.00 0.00 79 1016.2
20260507064905 12 0.0 0.0 0.00 0.00 0.00 80 1016.2
20260507063905 12 0.0 0.0 0.00 0.00 0.00 79 1016.2
20260507062905 11 0.0 0.0 0.00 0.00 0.00 79 1016.1
20260507061904 11 0.0 0.0 0.00 0.00 0.00 79 1016.0
20260507060904 11 0.0 0.0 0.00 0.00 0.00 80 1015.8
20260507055909 11 0.0 0.0 0.00 0.00 0.00 78 1015.7
20260507054908 11 0.0 0.0 0.00 0.00 0.00 80 1015.6
20260507053905 11 0.0 0.0 0.00 0.00 0.00 79 1015.3
20260507052906 11 0.0 0.0 0.00 0.00 0.00 79 1015.3
20260507051910 11 0.0 0.0 0.00 0.00 0.00 80 1015.2
20260507045906 11 0.0 0.0 0.00 0.00 0.00 79 1014.9
20260507044907 11 0.0 0.0 0.00 0.00 0.00 79 1014.9
20260507043911 11 0.0 0.0 0.00 0.00 0.00 80 1014.8
20260507040907 11 0.0 0.0 0.00 0.00 0.00 81 1014.4
20260507035904 11 0.0 0.0 0.00 0.00 0.00 80 1014.4
20260507034909 12 0.0 0.0 0.00 0.00 0.00 80 1014.4
20260507032914 12 0.0 0.0 0.00 0.00 0.00 81 1014.3
20260507030905 12 0.0 0.0 0.00 0.00 0.00 80 1014.1
20260507025905 12 0.0 0.0 0.00 0.00 0.00 79 1014.2
20260507024905 12 0.0 0.0 0.00 0.00 0.00 79 1014.2
20260507023906 12 0.0 0.0 0.00 0.00 0.00 80 1014.1
20260507022910 12 0.0 0.0 0.00 0.00 0.00 80 1014.1
20260507020910 12 0.0 0.0 0.00 0.00 0.00 80 1014.0
20260507014904 12 0.0 0.0 0.00 0.00 0.00 80 1013.8
20260507013904 12 0.0 0.0 0.00 0.00 0.00 81 1013.7
20260507012904 12 0.0 0.0 0.00 0.00 0.00 81 1013.6
20260507011905 12 0.0 0.0 0.00 0.00 0.00 81 1013.6
20260507010909 12 0.0 0.0 0.00 0.00 0.00 81 1013.5
20260507003906 12 0.0 0.0 0.00 0.00 0.00 80 1013.5
20260507002904 12 0.0 0.0 0.00 0.00 0.00 80 1013.4
20260507001904 12 0.0 0.0 0.00 0.00 0.00 80 1013.4
20260507000904 12 0.0 0.0 0.00 0.00 0.00 80 1013.4
20260506235905 12 0.0 0.0 0.00 0.00 0.00 79 1013.3
20260506234909 12 0.0 0.0 0.00 0.00 0.00 78 1013.3
20260506231907 12 0.0 0.0 0.00 0.00 0.00 77 1013.0
20260506230905 12 0.0 0.0 0.00 0.00 0.00 77 1013.0
20260506225904 12 0.0 0.0 0.00 0.00 0.00 77 1013.0
20260506224904 13 0.0 0.0 0.00 0.00 0.00 77 1013.0
20260506223910 13 0.0 0.0 0.00 0.00 0.00 77 1012.9
20260506221905 13 0.0 0.0 0.00 0.00 0.00 77 1012.7
20260506220904 13 0.0 0.0 0.00 0.00 0.00 77 1012.7
20260506215904 13 0.0 0.0 0.00 0.00 0.00 77 1012.6
20260506214905 13 0.0 0.0 0.00 0.00 0.00 77 1012.6
20260506213911 13 0.0 0.0 0.00 0.00 0.00 77 1012.6
20260506211903 13 0.0 0.0 0.00 0.00 0.00 77 1012.4
20260506210903 13 0.0 0.0 0.00 0.00 0.00 77 1012.4
20260506205910 13 0.0 0.0 0.00 0.00 0.00 77 1014.1
20260506204906 13 0.0 0.0 0.00 0.00 0.00 77 1012.1
20260506203905 13 0.0 0.0 0.00 0.00 0.00 77 1012.0
20260506202904 13 0.0 0.0 0.00 0.00 0.00 79 1012.0
20260506201905 13 0.0 0.0 0.00 0.00 0.00 79 1011.9
20260506200909 13 0.0 0.0 0.00 0.00 0.00 79 1011.8
20260506195905 13 0.0 0.0 0.00 0.00 0.00 78 1011.6
20260506194905 14 0.0 0.0 0.00 0.00 0.00 78 1011.4
20260506193909 14 0.0 0.0 0.00 0.00 0.00 79 1011.3
20260506191904 14 0.0 0.0 0.00 0.00 0.00 79 1010.9
20260506190906 14 0.0 0.0 0.00 0.00 0.00 79 1010.9
20260506185905 14 0.0 0.0 0.00 0.00 0.00 79 1010.9
20260506184909 14 0.0 0.0 0.00 0.00 0.00 80 1010.5
20260506182908 15 0.0 0.0 0.00 0.00 0.00 80 1010.5
20260506180905 15 0.0 0.0 0.00 0.00 0.00 81 1010.2
20260506175905 15 0.0 0.0 0.00 0.00 0.00 80 1010.1
20260506174905 15 0.0 0.0 0.00 0.00 0.00 80 1009.9
20260506173906 15 0.0 0.0 0.00 0.00 0.00 81 1009.8
20260506172905 15 0.0 0.0 0.00 0.00 0.00 81 1009.8
20260506171909 15 0.0 0.0 0.00 0.00 0.00 81 1009.5
20260506165905 15 0.0 0.0 0.00 0.00 0.00 80 1009.5
20260506164906 15 0.0 0.0 0.00 0.00 0.00 81 1009.3
20260506163905 15 0.0 0.0 0.00 0.00 0.00 82 1009.2
20260506162909 15 0.0 0.0 0.00 0.00 0.00 83 1009.1
20260506160905 15 0.0 0.0 0.00 0.00 0.00 85 1009.0
20260506155905 15 0.0 0.0 0.00 0.00 0.00 85 1008.4
20260506154905 16 0.0 0.0 0.00 0.00 0.00 85 1008.9
20260506153904 16 0.0 0.0 0.00 0.00 0.00 85 1008.9
20260506152905 16 0.0 0.0 0.00 0.00 0.00 85 1009.0
20260506151904 16 0.0 0.0 0.00 0.00 0.00 86 1008.9
20260506150905 16 0.0 0.0 0.00 0.00 0.00 88 1008.8
20260506145905 15 0.0 0.0 0.00 0.00 0.00 89 1008.7
20260506144910 16 0.0 0.0 0.00 0.00 0.00 87 1008.6
20260506142904 16 0.0 0.0 0.00 0.00 0.00 86 1008.6
20260506141904 16 0.0 0.0 0.00 0.00 0.00 85 1008.6
20260506140905 16 0.0 0.0 0.00 0.00 0.00 83 1008.6
20260506135904 16 0.0 0.0 0.00 0.00 0.00 78 1008.6
20260506134906 16 0.0 0.0 0.00 0.00 0.00 74 1008.6
20260506133906 16 0.0 0.0 0.00 0.00 0.00 74 1008.4
20260506132905 17 0.0 0.0 0.00 0.00 0.00 74 1008.3
20260506131905 17 0.0 0.0 0.00 0.00 0.00 75 1008.4
20260506130905 16 0.0 0.0 0.00 0.00 0.00 75 1008.5
20260506125906 16 0.0 0.0 0.00 0.00 0.00 75 1008.5
20260506124906 17 0.0 0.0 0.00 0.00 0.00 72 1008.3
20260506123905 17 0.0 0.0 0.00 0.00 0.00 68 1008.2
20260506122904 18 0.0 0.0 0.00 0.00 0.00 64 1008.1
20260506121904 18 0.0 0.0 0.00 0.00 0.00 66 1008.2
20260506120904 17 0.0 0.0 0.00 0.00 0.00 71 1008.3
20260506115905 16 0.0 0.0 0.00 0.00 0.00 76 1008.4
20260506114904 16 0.0 0.0 0.00 0.00 0.00 78 1008.5
20260506113905 15 0.0 0.0 0.00 0.00 0.00 78 1008.6